TimeEST,TemperatureF,Dew PointF,Humidity,Sea Level PressureIn,VisibilityMPH,Wind Direction,Wind SpeedMPH,Gust SpeedMPH,PrecipitationIn,Events,Conditions,WindDirDegrees,DateUTC
12:00 AM,80.6,73.4,79,29.95,6.2,ESE,3.5,-,N/A,,Partly Cloudy,120,2013-07-25 05:00:00
1:00 AM,81,73,71,29.94,12,ESE,4.6,,,,,110,2013-07-25 06:00:00
1:00 AM,80.6,73.4,79,29.92,6.2,ESE,4.6,-,N/A,,Partly Cloudy,110,2013-07-25 06:00:00
2:00 AM,80.6,73.4,79,29.92,6.2,ESE,3.5,-,N/A,,Partly Cloudy,120,2013-07-25 07:00:00
3:00 AM,80.6,73.4,79,29.92,6.2,NNE,4.6,-,N/A,,Partly Cloudy,30,2013-07-25 08:00:00
4:00 AM,78,73,79,29.93,12,SE,2.3,,,,Scattered Clouds,130,2013-07-25 09:00:00
4:00 AM,78.8,73.4,83,29.92,6.2,SE,2.3,-,N/A,,Partly Cloudy,130,2013-07-25 09:00:00
5:00 AM,77.0,73.4,89,29.92,6.2,SSE,2.3,-,N/A,,Partly Cloudy,150,2013-07-25 10:00:00
6:00 AM,77.0,73.4,89,29.95,6.2,South,2.3,-,N/A,,Partly Cloudy,170,2013-07-25 11:00:00
7:00 AM,80.6,75.2,84,29.95,6.2,Calm,Calm,-,N/A,,Partly Cloudy,0,2013-07-25 12:00:00
8:00 AM,84.2,77.0,79,29.98,6.2,NW,1.2,-,N/A,,Partly Cloudy,310,2013-07-25 13:00:00
9:00 AM,86.0,77.0,74,29.98,6.2,ENE,11.5,-,N/A,,Partly Cloudy,60,2013-07-25 14:00:00
10:00 AM,87.8,80.6,79,29.98,6.2,ENE,13.8,-,N/A,,Partly Cloudy,60,2013-07-25 15:00:00
11:00 AM,87.8,80.6,79,29.98,6.2,ENE,12.7,-,N/A,,Partly Cloudy,60,2013-07-25 16:00:00
12:00 PM,89.6,80.6,75,29.98,6.2,NE,13.8,-,N/A,,Partly Cloudy,50,2013-07-25 17:00:00
12:10 PM,89.6,80.6,75,29.98,6.2,NE,13.8,-,N/A,,Partly Cloudy,50,2013-07-25 17:10:00
1:00 PM,89.6,77.0,66,29.98,6.2,ENE,15.0,-,N/A,,Partly Cloudy,60,2013-07-25 18:00:00
2:00 PM,89.6,82.4,79,29.98,6.2,ENE,13.8,-,N/A,,Partly Cloudy,60,2013-07-25 19:00:00
3:00 PM,87.8,80.6,79,29.95,6.2,ENE,15.0,-,N/A,,Partly Cloudy,70,2013-07-25 20:00:00
4:00 PM,86,81,80,29.98,14,ENE,11.5,,,,Partly Cloudy,70,2013-07-25 21:00:00
4:00 PM,86.0,80.6,84,29.98,6.2,ENE,11.5,-,N/A,,Partly Cloudy,70,2013-07-25 21:00:00
5:00 PM,87.8,82.4,84,29.98,6.2,NE,12.7,-,N/A,,Partly Cloudy,50,2013-07-25 22:00:00
6:00 PM,86.0,78.8,79,29.98,6.2,East,9.2,-,N/A,,Partly Cloudy,80,2013-07-25 23:00:00
7:00 PM,86,77,69,30.01,16,East,6.9,,,,Haze,80,2013-07-26 00:00:00
7:00 PM,86.0,77.0,74,30.01,6.2,East,6.9,-,N/A,,Partly Cloudy,80,2013-07-26 00:00:00
8:00 PM,82.4,78.8,89,30.01,6.2,East,4.6,-,N/A,,Partly Cloudy,90,2013-07-26 01:00:00
9:00 PM,82.4,78.8,89,30.04,6.2,East,5.8,-,N/A,,Partly Cloudy,90,2013-07-26 02:00:00
10:00 PM,82,80,90,30.05,11,East,4.6,,,,Haze,90,2013-07-26 03:00:00
10:00 PM,82.4,78.8,89,30.04,6.2,East,4.6,-,N/A,,Partly Cloudy,90,2013-07-26 03:00:00
11:00 PM,80.6,78.8,94,30.04,6.2,NE,1.2,-,N/A,,Partly Cloudy,50,2013-07-26 04:00:00